User: anonymous   Login
Location: Caltech
(34.1382°N, 118.1253°W)
Time: 01:41:42
(UTC-07:00)
Language:

KITSAT 1 - Orbit

View from above orbital plane
View from above orbital plane
View from above satellite
View from above satellite

Ground track
Ground track

The orbit data is extracted from the following two-line orbital elements,

1 22077U 92052B   16274.49575432 -.00000036  00000-0  10148-3 0  9992
2 22077  66.0840 150.5208 0006541 202.1008 227.2734 12.86515383133987
Epoch (UTC): 30 September 2016 11:53:53
Eccentricity: 0.0006541
inclination: 66.0840°
perigee height: 1310 km
apogee height: 1320 km
right ascension of ascending node: 150.5208°
argument of perigee: 202.1008°
revolutions per day: 12.86515383
mean anomaly at epoch: 227.2734°
orbit number at epoch: 13398

The dashed part of the orbit path shows where the satellite is in the earth's shadow,  

DLR